Showing default

COSMOS 1909, 18788

Orbit data source: Space-Track

COSMOS 1909, 18788 is a payload satellite owned by UNKS (CIS) in LEO that was launched on Fri, 15 Jan 1988 UTC via a TSIKLON-3 launch vehicle from the Plesetsk Missile And Space Complex (PKMTR). Payload-class satellites include a variety of spacecraft equipped with specific instruments for various scientific and technological missions. These include communications satellites like Starlink; space stations such as the ISS; scientific satellites like the Hubble; Earth observation satellites from companies like Planet Labs, Umbra, and HawkEye 360; GPS; miniature CubeSats for education and research; and military/defense satellites.

Loading next visibility...
Identifier
18788, 1988-002A
Orbit
LEO
Country
Flag of CISCIS
Related business
Manufacturer
NPO PM
Mission
Defense Communications
Bus & Motor
STRELA-3, Unknown motor
Mass
225 kg wet, 225 kg dry
Launch date (UTC)
1988-01-15 (38 years ago)
Launch vehicle
TSIKLON-3
Launch site
Plesetsk Missile And Space Complex (PKMTR)
Object type
Payload
Rocket body
Debris
Shape & HBR
Cyl, 0.8 m
Radar Cross Section
1.257 m², Large (>1 m²)

Expand to show TLE details & history
Last TLE update: 6 hours ago

TLE from 6 hours ago
0 COSMOS 1909
1 18788U 88002A   26126.78553235  .00000026  00000-0  85109-4 0  9990
2 18788  82.6087 303.7805 0002502  72.2530 299.2403 12.62869453765585
Epoch: 2026-05-06T18:51Z
TLE epoch observation values (Epoch: 2026-05-06T18:51:09.995Z)
Latitude
11.32799°
Longitude
157.82958°
Altitude
1,412.153 km
Speed
7.156 km/s
True Right ascension
20h 21m 02s
True Declination
11° 16' 03"
Sunlit
Object was in daylight at epoch
Visualization orbit readout
Latitude
Unknown
Longitude
Unknown
Altitude
Unknown
Speed
Unknown
Apparent Right ascension
Unknown
Apparent Declination
Unknown
Sunlit
N/A
Visualization observer readout
Local Sidereal Time
09:09:27
Azimuth
Unknown
Elevation
Unknown
Doppler factor
Unknown
Orbital elements
Apogee altitude
1,410.39 km
Perigee altitude
1,406.494 km
Semi-major axis
7,786.579 km
Eccentricity
0.00025
Inclination
82.6087°
RAAN
303.7805°
Arg. of periapsis
72.253°
True anomaly
299.21528°
Mean anomaly
299.2403°
Eccentric anomaly
299.22779°
Mean motion
3.15881 °/min
Orbital period
113.97 mins
BSTAR
0.000085109
Loading maneuver chart data...
Computing Atmospheric mass density...
Loading historical data...
Loading historical data...
Loading historical data...
Loading historical data...
Loading historical data...
Loading historical data...
Loading historical data...

Documentation

Showing up to 5 results
|